Location: Unspecified
(54.1780°N, 4.6260°W)
Time: 22:53:36
(UTC+00:00)

Cosmos 2219 Rocket - Visible Passes

Search period start: 18 November 2025 00:00
Search period end: 28 November 2025 00:00
Orbit: 825 x 847 km, 71.0° (Epoch: 18 November)

Date Brightness Start Highest point End Pass type
(mag) Time Alt. Az. Time Alt. Az. Time Alt. Az.
18 Nov 4.2 03:37:41 21° NNE 03:37:41 21° NNE 03:39:37 10° NNE visible
18 Nov 3.8 05:19:22 18° NNW 05:19:36 18° NNW 05:23:29 10° NNE visible
18 Nov 4.2 07:02:44 10° NNW 07:05:54 15° N 07:09:05 10° NE visible
19 Nov 4.4 03:21:23 18° NNE 03:21:23 18° NNE 03:22:49 10° NNE visible
19 Nov 3.9 05:03:05 19° NNW 05:03:05 19° NNW 05:06:42 10° NNE visible
19 Nov 4.2 06:45:52 10° NNW 06:49:01 15° N 06:52:09 10° NE visible
20 Nov 4.7 03:05:05 15° NNE 03:05:05 15° NNE 03:06:03 10° NNE visible
20 Nov 4.0 04:46:47 19° N 04:46:47 19° N 04:49:55 10° NNE visible
20 Nov 4.2 06:29:01 10° NNW 06:32:08 15° N 06:35:15 10° NE visible
21 Nov 4.9 02:48:46 13° NNE 02:48:46 13° NNE 02:49:17 10° NNE visible
21 Nov 4.1 04:30:28 18° N 04:30:28 18° N 04:33:07 10° NNE visible
21 Nov 4.2 06:12:10 10° NNW 06:15:14 15° N 06:18:20 10° NE visible
22 Nov 5.1 02:32:27 10° NNE 02:32:27 10° NNE 02:32:30 10° NNE visible
22 Nov 4.2 04:14:08 17° N 04:14:08 17° N 04:16:19 10° NNE visible
22 Nov 4.2 05:55:50 11° NNW 05:58:21 15° N 06:01:26 10° NE visible
23 Nov 4.4 03:57:48 16° N 03:57:48 16° N 03:59:32 10° NNE visible
23 Nov 4.2 05:39:30 12° NNW 05:41:27 15° N 05:44:32 10° NNE visible
24 Nov 4.5 03:41:28 15° NNE 03:41:28 15° NNE 03:42:45 10° NNE visible
24 Nov 4.2 05:23:09 13° NNW 05:24:34 14° N 05:27:38 10° NNE visible
24 Nov 4.0 07:06:29 10° NNW 07:10:46 21° NNE 07:15:02 10° ENE visible
25 Nov 4.7 03:25:07 13° NNE 03:25:07 13° NNE 03:25:58 10° NNE visible
25 Nov 4.2 05:06:48 14° NNW 05:07:41 15° N 05:10:45 10° NNE visible
25 Nov 4.0 06:49:43 10° NNW 06:53:54 20° NNE 06:58:06 10° ENE visible
26 Nov 4.9 03:08:46 12° NNE 03:08:46 12° NNE 03:09:11 10° NNE visible
26 Nov 4.3 04:50:27 15° N 04:50:47 15° N 04:53:53 10° NNE visible
26 Nov 4.1 06:32:55 10° NNW 06:37:03 20° NNE 06:41:09 10° ENE visible
27 Nov 4.3 04:34:06 15° N 04:34:06 15° N 04:37:00 10° NNE visible
27 Nov 4.1 06:16:08 10° NNW 06:20:11 19° NNE 06:24:12 10° ENE visible
